Roseburg, OR

9:01 PM PDT on September 19, 2019 (GMT -0700)
Roseburg Regional

Weather History for KRBG - July, 2019

Change the Weather History Date:

Wednesday, July 31, 2019

  Actual Average Record
Temperature  
Mean Temperature 74 °F 72 °F  
Max Temperature 91 °F 86 °F 107 °F (2015)
Min Temperature 56 °F 57 °F 44 °F (1956)
Degree Days  
Heating Degree Days 0 0  
Month to date heating degree days 2 8  
Since 1 June heating degree days 37 94  
Since 1 July heating degree days 2 11  
Cooling Degree Days 9 7  
Month to date cooling degree days 198 173  
Year to date cooling degree days 349 243  
Since 1 June cooling degree days 320 223  
Growing Degree Days 22 (Base 50)    
Moisture  
Dew Point 52 °F    
Average Humidity 56    
Maximum Humidity 86    
Minimum Humidity 26    
Precipitation  
Precipitation 0.00 in 0.01 in 1.03 in (1985)
Month to date precipitation 0.02 0.42  
Year to date precipitation 21.69 19.18  
Sea Level Pressure  
Sea Level Pressure 30.01 in    
Wind  
Wind Speed 4 mph (NNW)    
Max Wind Speed 25 mph    
Max Gust Speed 59 mph    
Visibility 10 miles    
Events      
T = Trace of Precipitation, MM = Missing Value Source: NWS Daily Summary

Daily Weather History Graph

Daily Weather History Graph

Search for Another Location

Airport or City:

Astronomy

Jul. 31, 2019 Rise Set
Actual Time 6:02 AM PDT 8:36 PM PDT
Civil Twilight 5:29 AM PDT 9:08 PM PDT
Nautical Twilight 4:49 AM PDT 9:49 PM PDT
Astronomical Twilight 4:02 AM PDT 10:35 PM PDT
Moon 5:20 AM PDT (7/31) 8:41 PM PDT (7/31)
Length of Visible Light 15h 38m
Length of Day
14h 34m
Waning Crescent, 0% of the Moon is Illuminated
Jul 31
Waning Crescent
Jul 31
New
Aug 7
First Quarter
Aug 15
Full
Aug 23
Last Quarter

Hourly Weather History & Observations

Time (PDT) Temp. Heat Index Dew Point Humidity Pressure Visibility Wind Dir Wind Speed Gust Speed Precip Events Conditions
12:53 AM 62.1 °F - 52.0 °F 70% 30.03 in 10.0 mi Calm Calm - N/A   Clear
1:53 AM 61.0 °F - 52.0 °F 72% 30.03 in 10.0 mi Calm Calm - N/A   Clear
2:53 AM 59.0 °F - 52.0 °F 78% 30.03 in 10.0 mi Calm Calm - N/A   Clear
3:53 AM 57.0 °F - 51.1 °F 81% 30.04 in 10.0 mi Calm Calm - N/A   Clear
4:53 AM 57.9 °F - 51.1 °F 78% 30.04 in 10.0 mi Calm Calm - N/A   Clear
5:53 AM 55.9 °F - 51.1 °F 84% 30.05 in 10.0 mi Calm Calm - N/A   Clear
6:53 AM 55.9 °F - 51.1 °F 84% 30.05 in 10.0 mi Calm Calm - N/A   Clear
7:53 AM 60.1 °F - 52.0 °F 75% 30.06 in 10.0 mi Calm Calm - N/A   Clear
8:53 AM 64.0 °F - 52.0 °F 65% 30.06 in 10.0 mi Calm Calm - N/A   Clear
9:53 AM 66.9 °F - 52.0 °F 59% 30.05 in 10.0 mi Calm Calm - N/A   Clear
10:53 AM 73.0 °F - 52.0 °F 48% 30.04 in 10.0 mi Calm Calm - N/A   Clear
11:53 AM 75.0 °F - 51.1 °F 43% 30.03 in 10.0 mi WSW 3.5 mph - N/A   Clear
12:53 PM 82.0 °F - 51.1 °F 34% 30.01 in 10.0 mi NE 4.6 mph - N/A   Clear
1:53 PM 84.9 °F - 51.1 °F 31% 29.99 in 10.0 mi North 5.8 mph - N/A   Clear
2:53 PM 87.1 °F - 51.1 °F 29% 29.97 in 10.0 mi NE 5.8 mph - N/A   Clear
3:53 PM 88.0 °F - 52.0 °F 29% 29.95 in 10.0 mi NW 6.9 mph - N/A   Clear
4:53 PM 90.0 °F - 50.0 °F 25% 29.94 in 10.0 mi North 9.2 mph - N/A   Clear
5:53 PM 89.1 °F - 52.0 °F 28% 29.94 in 10.0 mi NW 10.4 mph - N/A   Clear
6:53 PM 84.9 °F 83.6 °F 55.0 °F 36% 29.94 in 10.0 mi WNW 10.4 mph 17.3 mph N/A   Clear
7:53 PM 82.0 °F 81.4 °F 55.0 °F 39% 29.96 in 10.0 mi NW 10.4 mph 18.4 mph N/A   Clear
8:53 PM 78.1 °F - 54.0 °F 43% 29.98 in 10.0 mi NNW 8.1 mph - N/A   Clear
9:53 PM 75.0 °F - 54.0 °F 48% 30.01 in 10.0 mi North 6.9 mph - N/A   Clear
10:53 PM 72.0 °F - 55.0 °F 55% 30.01 in 10.0 mi North 6.9 mph - N/A   Clear
11:53 PM 69.1 °F - 55.9 °F 63% 30.02 in 10.0 mi North 4.6 mph - N/A   Clear